Location: Azalea Creek
(37.1280°N, 119.2623°W)
Time: 08:46:24
(UTC+00:00)

Haruka - Pass Details

Date: 17 February 2020
Orbit: 539 x 21212 km, 31.3° (Epoch: 29 March)

Event Time Altitude Azimuth Distance (km) Brightness Sun altitude
Rises 02:09:21 0° 261° (W) 2,717 8.6 -7.0°
Reaches altitude 10° 02:11:18 10° 252° (WSW) 1,792 6.6 -7.4°
Maximum altitude 02:14:26 38° 180° (S) 997 3.7 -8.0°
Drops below altitude 10° 02:20:07 10° 112° (ESE) 3,257 5.7 -9.1°
Enters shadow 02:21:54 - 109° (ESE) 4,098 6.2 -9.5°
